User: anonymous   Login
Location: Unspecified
(0.0000°N, 0.0000°E)
Time: 06:15:54
(UTC+00:00)
Language:

OPTUS 1C - Orbit

View from above orbital plane
View from above orbital plane
View from above satellite
View from above satellite

Ground track
Ground track

The orbit data is extracted from the following two-line orbital elements,

1 27831U 03028B   18319.58181109 -.00000147 +00000-0 +00000-0 0  9992
2 27831 000.0852 119.4018 0004419 104.1434 196.2639 01.00272904025274
Epoch (UTC): 15 November 2018 13:57:48
Eccentricity: 0.0004419
inclination: 0.0852°
perigee height: 35767 km
apogee height: 35804 km
right ascension of ascending node: 119.4018°
argument of perigee: 104.1434°
revolutions per day: 1.00272904
mean anomaly at epoch: 196.2639°
orbit number at epoch: 2527

The dashed part of the orbit path shows where the satellite is in the earth's shadow,  

DLR